TimeCST,TemperatureF,Dew PointF,Humidity,Sea Level PressureIn,VisibilityMPH,Wind Direction,Wind SpeedMPH,Gust SpeedMPH,PrecipitationIn,Events,Conditions,WindDirDegrees,DateUTC
12:15 AM,33.4,30.2,88,30.15,10.0,WSW,3.5,-,N/A,,Clear,250,2013-02-12 06:15:00
12:35 AM,33.1,29.7,87,30.15,10.0,WNW,3.5,-,N/A,,Clear,300,2013-02-12 06:35:00
12:55 AM,32.2,30.4,93,30.15,10.0,Calm,Calm,-,N/A,,Clear,0,2013-02-12 06:55:00
1:15 AM,33.1,30.6,90,30.15,10.0,Calm,Calm,-,N/A,,Clear,0,2013-02-12 07:15:00
1:35 AM,32.0,29.7,91,30.15,10.0,West,3.5,-,N/A,,Clear,270,2013-02-12 07:35:00
1:55 AM,31.8,29.8,92,30.15,10.0,NW,3.5,-,N/A,,Clear,320,2013-02-12 07:55:00
2:15 AM,32.2,29.5,90,30.15,10.0,WNW,4.6,-,N/A,,Clear,300,2013-02-12 08:15:00
2:35 AM,31.3,29.1,92,30.15,10.0,Calm,Calm,-,N/A,,Clear,0,2013-02-12 08:35:00
2:55 AM,31.8,29.7,92,30.14,10.0,WNW,3.5,-,N/A,,Clear,290,2013-02-12 08:55:00
3:15 AM,31.6,29.1,90,30.14,10.0,NNW,3.5,-,N/A,,Clear,340,2013-02-12 09:15:00
3:35 AM,32.2,30.7,94,30.14,10.0,NNW,3.5,-,N/A,,Clear,330,2013-02-12 09:35:00
3:55 AM,32.0,27.7,84,30.14,10.0,NNW,8.1,-,N/A,,Clear,330,2013-02-12 09:55:00
4:15 AM,33.8,29.1,83,30.14,10.0,Calm,Calm,-,N/A,,Clear,0,2013-02-12 10:15:00
4:35 AM,31.8,28.8,88,30.15,10.0,Calm,Calm,-,N/A,,Clear,0,2013-02-12 10:35:00
4:55 AM,32.0,29.5,90,30.15,10.0,Calm,Calm,-,N/A,,Clear,0,2013-02-12 10:55:00
5:35 AM,30.6,28.4,92,30.16,10.0,Calm,Calm,-,N/A,,Clear,0,2013-02-12 11:35:00
5:55 AM,31.8,30.0,93,30.16,10.0,Calm,Calm,-,N/A,,Clear,0,2013-02-12 11:55:00
6:15 AM,31.6,30.2,94,30.16,10.0,Calm,Calm,-,N/A,,Clear,0,2013-02-12 12:15:00
6:35 AM,31.1,29.3,93,30.16,10.0,Calm,Calm,-,N/A,,Clear,0,2013-02-12 12:35:00
6:55 AM,30.6,29.1,94,30.16,10.0,Calm,Calm,-,N/A,,Clear,0,2013-02-12 12:55:00
7:15 AM,30.9,29.3,94,30.15,10.0,Calm,Calm,-,N/A,,Clear,0,2013-02-12 13:15:00
7:35 AM,30.9,29.3,94,30.16,10.0,Calm,Calm,-,N/A,,Clear,0,2013-02-12 13:35:00
7:55 AM,32.0,30.9,96,30.16,10.0,Calm,Calm,-,N/A,,Clear,0,2013-02-12 13:55:00
8:15 AM,34.0,32.0,92,30.16,10.0,Calm,Calm,-,N/A,,Clear,0,2013-02-12 14:15:00
8:35 AM,36.3,33.1,88,30.16,10.0,Calm,Calm,-,N/A,,Clear,0,2013-02-12 14:35:00
8:55 AM,38.3,31.8,77,30.16,10.0,Calm,Calm,-,N/A,,Clear,0,2013-02-12 14:55:00
9:15 AM,40.1,32.0,73,30.16,10.0,Calm,Calm,-,N/A,,Clear,0,2013-02-12 15:15:00
9:35 AM,41.4,32.4,70,30.16,10.0,Calm,Calm,-,N/A,,Clear,0,2013-02-12 15:35:00
9:55 AM,42.4,31.8,66,30.17,10.0,Calm,Calm,-,N/A,,Clear,0,2013-02-12 15:55:00
10:15 AM,43.3,32.0,64,30.14,10.0,Calm,Calm,-,N/A,,Clear,0,2013-02-12 16:15:00
10:35 AM,44.1,32.4,63,30.12,10.0,Calm,Calm,-,N/A,,Clear,0,2013-02-12 16:35:00
10:55 AM,43.7,32.2,64,30.10,7.0,Calm,Calm,-,N/A,,Clear,0,2013-02-12 16:55:00
11:15 AM,45.5,32.2,60,30.11,10.0,Calm,Calm,-,N/A,,Clear,0,2013-02-12 17:15:00
11:35 AM,45.0,31.6,60,30.12,10.0,Calm,Calm,-,N/A,,Clear,0,2013-02-12 17:35:00
11:55 AM,45.9,32.0,58,30.12,10.0,Calm,Calm,-,N/A,,Clear,0,2013-02-12 17:55:00
12:15 PM,46.9,32.2,57,30.12,10.0,Calm,Calm,-,N/A,,Clear,0,2013-02-12 18:15:00
12:35 PM,46.2,31.8,57,30.11,10.0,Calm,Calm,-,N/A,,Clear,0,2013-02-12 18:35:00
12:55 PM,46.8,32.2,57,30.09,10.0,SSE,3.5,-,N/A,,Clear,150,2013-02-12 18:55:00
1:15 PM,47.3,32.2,56,30.10,10.0,SSE,3.5,-,N/A,,Clear,160,2013-02-12 19:15:00
1:35 PM,47.5,32.4,56,30.10,10.0,Calm,Calm,-,N/A,,Clear,0,2013-02-12 19:35:00
1:55 PM,47.8,32.2,55,30.09,10.0,Calm,Calm,-,N/A,,Clear,0,2013-02-12 19:55:00
2:15 PM,47.8,31.6,53,30.08,10.0,Calm,Calm,-,N/A,,Clear,0,2013-02-12 20:15:00
2:35 PM,48.4,32.2,54,30.05,10.0,Calm,Calm,-,N/A,,Clear,0,2013-02-12 20:35:00
2:55 PM,48.7,32.4,53,30.04,10.0,North,3.5,-,N/A,,Clear,10,2013-02-12 20:55:00
3:15 PM,48.2,31.8,53,30.04,10.0,NNW,3.5,-,N/A,,Clear,340,2013-02-12 21:15:00
3:35 PM,48.0,31.1,52,30.02,10.0,Calm,Calm,-,N/A,,Clear,0,2013-02-12 21:35:00
3:55 PM,47.7,32.5,56,30.00,10.0,NNW,3.5,-,N/A,,Clear,340,2013-02-12 21:55:00
4:15 PM,47.3,32.0,55,30.01,10.0,Calm,Calm,-,N/A,,Clear,0,2013-02-12 22:15:00
4:35 PM,47.3,32.5,57,30.02,10.0,Calm,Calm,-,N/A,,Clear,0,2013-02-12 22:35:00
4:55 PM,46.9,32.2,57,30.01,10.0,Calm,Calm,-,N/A,,Scattered Clouds,0,2013-02-12 22:55:00
5:15 PM,46.8,33.6,60,30.00,10.0,Calm,Calm,-,N/A,,Mostly Cloudy,0,2013-02-12 23:15:00
5:35 PM,46.4,34.7,64,30.01,10.0,Calm,Calm,-,N/A,,Scattered Clouds,0,2013-02-12 23:35:00
5:55 PM,44.4,36.1,73,30.00,10.0,NNW,5.8,-,N/A,,Scattered Clouds,340,2013-02-12 23:55:00
6:15 PM,44.6,34.7,68,29.98,10.0,North,4.6,-,N/A,,Overcast,360,2013-02-13 00:15:00
6:35 PM,44.8,34.9,68,29.97,10.0,North,5.8,-,N/A,,Mostly Cloudy,360,2013-02-13 00:35:00
6:55 PM,44.4,34.3,68,29.97,10.0,North,5.8,-,N/A,,Clear,360,2013-02-13 00:55:00
7:15 PM,43.3,34.7,72,29.96,10.0,NNE,3.5,-,N/A,,Clear,30,2013-02-13 01:15:00
7:35 PM,42.8,36.0,77,29.97,10.0,Calm,Calm,-,N/A,,Clear,0,2013-02-13 01:35:00
8:15 PM,42.3,38.1,85,29.96,10.0,Calm,Calm,-,N/A,,Mostly Cloudy,0,2013-02-13 02:15:00
8:35 PM,41.9,37.6,85,29.95,10.0,Calm,Calm,-,N/A,,Mostly Cloudy,0,2013-02-13 02:35:00
8:55 PM,41.4,37.4,86,29.94,10.0,Calm,Calm,-,N/A,,Scattered Clouds,0,2013-02-13 02:55:00
9:15 PM,40.8,36.7,85,29.93,10.0,Calm,Calm,-,N/A,,Clear,0,2013-02-13 03:15:00
9:35 PM,41.7,37.9,86,29.93,10.0,Calm,Calm,-,N/A,,Mostly Cloudy,0,2013-02-13 03:35:00
9:55 PM,41.0,38.1,89,29.92,10.0,North,4.6,-,N/A,,Overcast,360,2013-02-13 03:55:00
10:15 PM,41.2,36.9,85,29.92,10.0,North,5.8,-,N/A,,Overcast,360,2013-02-13 04:15:00
10:35 PM,41.9,36.3,81,29.91,10.0,NNE,4.6,-,N/A,,Overcast,20,2013-02-13 04:35:00
10:55 PM,41.5,36.5,82,29.90,10.0,North,5.8,-,N/A,,Overcast,360,2013-02-13 04:55:00
11:15 PM,41.9,35.8,79,29.91,10.0,North,5.8,-,N/A,,Overcast,360,2013-02-13 05:15:00
11:35 PM,42.1,34.9,76,29.91,10.0,North,4.6,-,N/A,,Overcast,360,2013-02-13 05:35:00
11:55 PM,41.9,34.9,76,29.91,10.0,North,4.6,-,N/A,Rain,Light Rain,10,2013-02-13 05:55:00